Ruston, LA

4:15 PM CDT on June 22, 2017 (GMT -0500)
Ruston Regional

Weather History for KRSN - April, 2013

Change the Weather History Date:

Thursday, April 18, 2013

  Actual Average Record
Temperature  
Mean Temperature 64 °F -  
Max Temperature 81 °F 76 °F 91 °F (1934)
Min Temperature 47 °F 54 °F 40 °F (1946)
Growing Degree Days 14 (Base 50)    
Moisture  
Dew Point 62 °F    
Average Humidity 83    
Maximum Humidity 100    
Minimum Humidity 59    
Precipitation  
Precipitation 0.86 in - - ()
Sea Level Pressure  
Sea Level Pressure 29.83 in    
Wind  
Wind Speed 13 mph (SSW)    
Max Wind Speed 24 mph    
Max Gust Speed 32 mph    
Visibility 9 miles    
Events Rain , Thunderstorm    
Averages and records for this station are not official NWS values.
T = Trace of Precipitation, MM = Missing Value Source: NWS Daily Summary

Daily Weather History Graph

Daily Weather History Graph

Search for Another Location

Airport or City:

Trip Planner

Search our weather history database for the weather conditions in past years. The results will help you decide how hot, cold, wet, or windy it might be!

Date:

Astronomy

Apr. 18, 2013 Rise Set
Actual Time 6:37 AM CDT 7:42 PM CDT
Civil Twilight 6:11 AM CDT 8:07 PM CDT
Nautical Twilight 5:41 AM CDT 8:38 PM CDT
Astronomical Twilight 5:10 AM CDT 9:09 PM CDT
Moon 12:52 PM CDT (4/18) 1:53 AM CDT (4/18)
Length of Visible Light 13h 56m
Length of Day
13h 05m
First Quarter, 52% of the Moon is Illuminated
Apr 18
First Quarter
Apr 25
Full
May 2
Last Quarter
May 9
New
May 17
First Quarter

Hourly Weather History & Observations

Time (CDT) Temp. Heat Index Dew Point Humidity Pressure Visibility Wind Dir Wind Speed Gust Speed Precip Events Conditions
12:15 AM 75.4 °F - 70.3 °F 84% 29.88 in 10.0 mi South 11.5 mph - N/A Rain Light Rain
12:35 AM 75.2 °F - 70.5 °F 85% 29.87 in 10.0 mi South 10.4 mph 16.1 mph N/A   Overcast
12:55 AM 75.4 °F - 70.0 °F 83% 29.87 in 10.0 mi South 13.8 mph 18.4 mph N/A   Overcast
1:15 AM 75.4 °F - 69.3 °F 81% 29.86 in 10.0 mi South 11.5 mph - N/A   Overcast
1:35 AM 75.2 °F - 69.3 °F 82% 29.86 in 10.0 mi South 12.7 mph 17.3 mph N/A   Overcast
1:55 AM 75.0 °F - 69.1 °F 82% 29.84 in 10.0 mi SSE 10.4 mph - N/A   Mostly Cloudy
2:15 AM 75.2 °F - 68.9 °F 81% 29.84 in 10.0 mi SSE 13.8 mph - N/A   Mostly Cloudy
2:35 AM 75.4 °F - 68.5 °F 79% 29.84 in 10.0 mi South 17.3 mph 21.9 mph N/A   Overcast
2:55 AM 75.4 °F - 68.4 °F 79% 29.83 in 10.0 mi South 12.7 mph 20.7 mph N/A   Overcast
3:15 AM 75.6 °F - 67.5 °F 76% 29.82 in 10.0 mi South 19.6 mph 25.3 mph N/A   Overcast
3:35 AM 75.0 °F - 67.1 °F 76% 29.82 in 10.0 mi South 16.1 mph 25.3 mph N/A   Overcast
3:55 AM 74.8 °F - 67.1 °F 77% 29.81 in 10.0 mi South 17.3 mph 23.0 mph N/A   Overcast
4:35 AM 74.3 °F - 67.3 °F 79% 29.79 in 10.0 mi South 11.5 mph - N/A   Overcast
4:55 AM 74.3 °F - 67.5 °F 79% 29.78 in 10.0 mi South 12.7 mph 17.3 mph N/A   Overcast
5:15 AM 74.3 °F - 67.5 °F 79% 29.79 in 10.0 mi South 17.3 mph 21.9 mph N/A   Overcast
5:35 AM 74.3 °F - 67.5 °F 79% 29.78 in 10.0 mi South 16.1 mph 23.0 mph N/A   Overcast
5:55 AM 73.9 °F - 67.3 °F 80% 29.79 in 10.0 mi South 16.1 mph 23.0 mph N/A   Overcast
6:15 AM 73.9 °F - 67.3 °F 80% 29.79 in 10.0 mi South 16.1 mph 21.9 mph N/A   Mostly Cloudy
6:35 AM 73.9 °F - 67.3 °F 80% 29.80 in 10.0 mi South 15.0 mph 21.9 mph N/A   Mostly Cloudy
6:55 AM 73.8 °F - 67.1 °F 80% 29.80 in 10.0 mi South 13.8 mph 19.6 mph N/A   Mostly Cloudy
7:15 AM 73.8 °F - 67.3 °F 80% 29.81 in 10.0 mi South 11.5 mph - N/A   Mostly Cloudy
7:35 AM 73.8 °F - 67.3 °F 80% 29.81 in 10.0 mi South 10.4 mph 17.3 mph N/A   Overcast
7:55 AM 73.9 °F - 67.1 °F 79% 29.81 in 10.0 mi South 11.5 mph 18.4 mph N/A   Overcast
8:15 AM 74.7 °F - 67.1 °F 77% 29.81 in 10.0 mi South 11.5 mph - N/A   Overcast
8:35 AM 74.8 °F - 66.9 °F 76% 29.82 in 10.0 mi South 15.0 mph - N/A   Overcast
8:55 AM 74.7 °F - 66.6 °F 76% 29.81 in 10.0 mi South 11.5 mph 21.9 mph N/A   Overcast
9:15 AM 75.6 °F - 66.9 °F 74% 29.81 in 10.0 mi South 17.3 mph 23.0 mph N/A   Overcast
9:35 AM 75.9 °F - 66.6 °F 73% 29.81 in 10.0 mi South 19.6 mph 26.5 mph N/A   Overcast
9:55 AM 76.1 °F - 66.6 °F 72% 29.82 in 10.0 mi South 15.0 mph 24.2 mph N/A   Overcast
10:35 AM 76.1 °F - 67.1 °F 74% 29.84 in 10.0 mi SSW 9.2 mph - N/A   Overcast
10:55 AM 76.1 °F - 66.7 °F 73% 29.84 in 10.0 mi South 12.7 mph 19.6 mph N/A   Overcast
11:15 AM 78.1 °F - 67.3 °F 69% 29.83 in 10.0 mi South 15.0 mph 18.4 mph N/A   Mostly Cloudy
11:35 AM 77.9 °F - 66.7 °F 68% 29.82 in 10.0 mi South 13.8 mph 19.6 mph N/A   Overcast
11:55 AM 80.2 °F 82.6 °F 67.1 °F 64% 29.79 in 10.0 mi South 19.6 mph 26.5 mph N/A   Scattered Clouds
12:15 PM 80.4 °F 82.6 °F 66.4 °F 62% 29.77 in 10.0 mi South 23.0 mph 32.2 mph N/A   Scattered Clouds
12:35 PM 81.7 °F 83.8 °F 66.2 °F 59% 29.75 in 10.0 mi South 24.2 mph 28.8 mph N/A   Scattered Clouds
12:55 PM 81.0 °F 83.0 °F 65.8 °F 60% 29.74 in 10.0 mi South 16.1 mph 27.6 mph N/A   Overcast
1:15 PM 80.8 °F 82.9 °F 66.2 °F 61% 29.73 in 10.0 mi South 24.2 mph 31.1 mph N/A   Overcast
1:35 PM 79.7 °F - 66.2 °F 63% 29.72 in 10.0 mi South 17.3 mph 24.2 mph N/A   Overcast
1:55 PM 79.7 °F - 65.8 °F 62% 29.70 in 10.0 mi South 19.6 mph 27.6 mph N/A   Overcast
2:15 PM 79.5 °F - 66.6 °F 64% 29.70 in 10.0 mi SSW 15.0 mph 24.2 mph N/A   Overcast
2:35 PM 68.0 °F - 63.3 °F 85% 29.74 in 7.0 mi NW 15.0 mph 25.3 mph 0.02 in Rain Heavy Rain
2:55 PM 65.5 °F - 65.5 °F 100% 29.75 in 2.0 mi WNW 6.9 mph 19.6 mph 0.34 in Rain , Thunderstorm Heavy Thunderstorms and Rain
3:15 PM 65.5 °F - 65.5 °F 100% 29.77 in 4.0 mi West 9.2 mph 16.1 mph 0.11 in Rain , Thunderstorm Heavy Thunderstorms and Rain
3:35 PM 63.1 °F - 63.1 °F 100% 29.76 in 4.0 mi NNW 10.4 mph 21.9 mph 0.20 in Rain , Thunderstorm Rain
3:55 PM 60.4 °F - 60.4 °F 100% 29.78 in 7.0 mi NW 9.2 mph 21.9 mph 0.23 in Rain , Thunderstorm Light Thunderstorms and Rain
4:15 PM 59.0 °F - 59.0 °F 100% 29.77 in 10.0 mi NW 10.4 mph - N/A   Overcast
4:35 PM 58.8 °F - 58.8 °F 100% 29.78 in 10.0 mi WNW 6.9 mph - N/A Rain Light Rain
4:55 PM 56.3 °F - 56.3 °F 100% 29.82 in 10.0 mi WNW 10.4 mph 25.3 mph 0.01 in Rain Light Rain
5:15 PM 55.6 °F - 55.6 °F 100% 29.83 in 10.0 mi WNW 12.7 mph 20.7 mph 0.02 in Rain Light Rain
5:35 PM 54.5 °F - 54.5 °F 100% 29.84 in 10.0 mi NW 6.9 mph - 0.02 in   Overcast
5:55 PM 53.8 °F - 53.8 °F 100% 29.85 in 10.0 mi WNW 8.1 mph 17.3 mph 0.02 in Rain Rain
6:15 PM 52.2 °F - 52.2 °F 100% 29.85 in 10.0 mi NW 9.2 mph 20.7 mph 0.02 in Rain Light Rain
6:35 PM 51.4 °F - 51.4 °F 100% 29.86 in 3.0 mi WNW 10.4 mph 19.6 mph 0.10 in Rain Light Rain
6:55 PM 50.9 °F - 50.9 °F 100% 29.90 in 10.0 mi West 8.1 mph 17.3 mph 0.14 in Rain , Thunderstorm Light Thunderstorms and Rain
7:15 PM 50.4 °F - 50.4 °F 100% 29.87 in 10.0 mi NW 8.1 mph 17.3 mph 0.02 in Rain , Thunderstorm Thunderstorms and Rain
7:35 PM 50.0 °F - 50.0 °F 100% 29.93 in 7.0 mi WNW 6.9 mph - 0.11 in Rain Light Rain
7:55 PM 49.8 °F - 49.8 °F 100% 29.94 in 10.0 mi West 5.8 mph 16.1 mph 0.11 in Rain , Thunderstorm Light Thunderstorms and Rain
8:15 PM 49.6 °F - 49.6 °F 100% 29.91 in 10.0 mi NW 8.1 mph - 0.01 in Rain Light Rain
8:35 PM 49.5 °F - 49.5 °F 100% 29.93 in 10.0 mi WNW 5.8 mph - 0.01 in   Overcast
10:35 PM 48.6 °F - 47.7 °F 97% 30.01 in 10.0 mi NNW 10.4 mph 16.1 mph N/A   Overcast
10:55 PM 48.4 °F - 47.1 °F 95% 30.02 in 10.0 mi NNW 8.1 mph - N/A   Overcast
11:15 PM 48.2 °F - 45.9 °F 92% 30.03 in 10.0 mi NNW 8.1 mph - N/A   Overcast
11:35 PM 48.2 °F - 44.6 °F 87% 30.03 in 10.0 mi NNW 9.2 mph - N/A   Overcast
11:55 PM 47.8 °F - 45.0 °F 90% 30.05 in 10.0 mi NW 10.4 mph - N/A   Overcast